[[{"header":{"parameterUnit":"m.s-1","parameterCategory":1,"la1":30.2991,"la2":30.254,"lo1":-89.0895,"lo2":-89.0444,"dy":0.0017,"dx":0.0017,"nx":28,"ny":28,"refTime":"2023-10-10T21:00:00:Z","depth":0,"parameterNumber":2,"parameterNumberName":"U-component_of_WINDS"},"data":[0,0,0,0,0,0,0,0,0,0,0,0,0,0,0,0,0,0,0,0,0,0,0,0,0,0,0,0,0,0,0,0,0,0,0,0,0,0,0,0,0,0,0,0,0,0,0,0,0,0,0,0,0,0,0,0,0,0,-7.9005,-7.9005,0,-7.9048,-7.9049,-7.9049,-7.8896,-7.8891,-7.8886,-7.8882,-7.8927,-7.8933,-7.8938,0,0,0,0,0,0,0,0,0,0,0,0,0,-7.8788,-7.8793,-7.9005,-7.9005,-7.9006,-7.9048,-7.9049,-7.905,-7.8897,-7.8891,-7.8885,-7.888,-7.8926,-7.8932,-7.8939,0,0,0,0,0,0,0,0,0,0,0,0,0,-7.8862,-7.8795,-7.9004,-7.8934,-7.8929,-7.9048,-7.9049,-7.905,-7.8898,-7.8891,-7.8884,-7.8877,-7.8923,-7.8931,-7.894,-7.9129,0,0,-7.8965,-7.8968,0,0,0,0,0,0,0,0,-7.8858,-7.887,-7.8944,-7.8939,-7.8933,-7.8959,-7.8989,-7.9076,-7.8899,-7.891,-7.8882,-7.8874,-7.8944,-7.895,-7.8973,-7.9131,-7.9133,-7.8965,-7.897,-7.8974,-7.8976,0,0,0,0,0,0,0,-7.8853,-7.8868,-7.9022,-7.8945,-7.8939,-7.8901,-7.8904,-7.9005,-7.8965,-7.8908,-7.8897,-7.8904,-7.8939,-7.8966,-7.8973,-7.9134,-7.8965,-7.8973,-7.8978,-7.8981,-7.9449,-7.9456,0,0,0,0,0,0,-7.8857,-7.8864,-7.902,-7.9023,-7.8878,-7.891,-7.8914,-7.8958,-7.8963,-7.8957,-7.891,-7.8897,-7.8955,-7.8964,-7.8974,-7.9196,-7.8974,-7.8982,-7.8986,-7.9442,-7.9451,-7.9459,0,0,0,0,0,0,-7.8853,-7.8873,-7.9019,-7.8941,-7.8956,-7.8921,-7.8973,-7.8963,-7.8989,-7.8965,-7.8957,-7.8945,-7.895,-7.8963,-7.9092,-7.9196,-7.8985,-7.8993,-7.9433,-7.9445,-7.9455,-7.9643,0,0,0,0,0,0,-7.8848,-7.8872,-7.8944,-7.8944,-7.8961,-7.9136,-7.8979,-7.8968,-7.9003,-7.8987,-7.8995,-7.899,-7.8945,-7.908,-7.91,-7.9203,-7.8999,-7.9423,-7.9438,-7.9451,-7.9627,-7.9659,-7.9686,0,0,0,0,0,-7.8841,-7.8995,-7.8948,-7.8968,-7.905,-7.9142,-7.9152,-7.9098,-7.9012,-7.9084,-7.9069,-7.8989,-7.9181,-7.9095,-7.9115,-7.9223,-7.9417,-7.9434,-7.945,-7.9614,-7.9653,-7.9686,0,0,0,0,0,0,-7.9008,-7.8994,-7.8942,-7.91,-7.9124,-7.9116,-7.9205,-7.9141,-7.9189,-7.9171,-7.9102,-7.9105,-7.9247,-7.9247,-7.9151,-7.9407,-7.9284,-7.9306,-7.9401,-7.9438,-7.9467,-7.9464,-7.9006,0,0,0,0,0,-7.9064,-7.914,-7.9123,-7.9265,-7.9279,-7.9241,-7.9279,-7.9235,-7.9256,-7.9265,-7.9259,-7.9283,-7.9348,-7.9393,-7.9452,-7.9626,-7.9626,-7.9711,-7.974,-7.9765,-7.9785,-7.9877,-7.9915,-7.9514,-7.9514,-7.9514,0,0,-7.9179,-7.918,-7.9233,-7.9298,-7.9311,-7.9392,-7.925,-7.9341,-7.94,-7.9279,-7.9401,-7.9398,-7.9419,-7.9572,-7.9639,-7.9577,-7.9895,-7.9786,-7.9806,-7.9812,-7.9898,-7.9936,-7.997,-7.9526,-7.9524,-7.9522,0,0,-7.943,-7.9439,-7.9558,-7.9574,-7.9596,-7.9569,-7.9598,-7.96,-7.9594,-7.9714,-7.9626,-7.9695,-7.9809,-7.9829,-7.9854,-8.0113,-8.0042,-8.0135,-8.0289,-8.0381,-8.0412,-8.044,-8.0533,-8.0567,-8.0154,-8.0155,-8.0155,0,-7.9571,-7.9688,-7.9627,-7.9725,-7.9757,-7.9651,-7.9771,-7.979,-7.983,-7.9854,-7.9784,-7.9926,-7.9933,-8.0089,-8.0153,-8.0176,-8.0207,-8.0133,-8.0412,-8.044,-8.0464,-8.0552,-8.0588,-8.0166,-8.0165,-8.0163,-8.0162,0,-7.986,-7.9944,-8.0037,-8.0079,-8.0121,-8.023,-8.0185,-8.0235,-8.0188,-8.0169,-8.0294,-8.0299,-8.0358,-8.0391,-8.0346,-8.0542,-8.0503,-8.0424,-8.0299,-8.0515,-8.0596,-8.0629,-8.0182,-8.0178,-8.0174,-8.0172,0,0,-8.0218,-8.0225,-8.0261,-8.0278,-8.0295,-8.0358,-8.0462,-8.0519,-8.0563,-8.0595,-8.068,-8.078,-8.0707,-8.0736,-8.0692,-8.0772,-8.0978,-8.0683,-8.0682,-8.0738,-8.1194,-8.1254,-8.1293,-8.0931,-8.0937,-8.0942,-8.1192,0,-8.0465,-8.0643,-8.0592,-8.0771,-8.0847,-8.0748,-8.0838,-8.0859,-8.0844,-8.0906,-8.0889,-8.0962,-8.086,-8.0877,-8.0951,-8.0937,-8.1069,-8.0918,-8.101,-8.1014,-8.1008,-8.1336,-8.1399,-8.1635,-8.1224,-8.1229,-8.1233,0,-8.0778,-8.0822,-8.1008,-8.1012,-8.1042,-8.1125,-8.1173,-8.1234,-8.1255,-8.1238,-8.1271,-8.1211,-8.1313,-8.1189,-8.1329,-8.1228,-8.1262,-8.1261,-8.1269,-8.1275,-8.1137,-8.1352,-8.1709,-8.1745,-8.1282,-8.1278,-8.1275,0,-8.1021,-8.1126,-8.1252,-8.127,-8.1277,-8.1338,-8.1344,-8.1358,-8.1396,-8.1438,-8.1462,-8.1516,-8.1546,-8.1589,-8.1545,-8.1458,-8.1693,-8.1564,-8.1682,-8.1684,-8.1736,-8.1734,-8.2105,-8.1759,-8.1758,-8.1758,-8.1757,0,-8.1302,-8.1421,-8.1361,-8.1438,-8.1568,-8.1507,-8.1637,-8.1632,-8.1645,-8.172,-8.1637,-8.1709,-8.1647,-8.1713,-8.1679,-8.1801,-8.1815,-8.1805,-8.1795,-8.1813,-8.1814,-8.1834,-8.1817,-8.1767,-8.1765,-8.1763,-8.1762,0,-8.1596,-8.156,-8.1691,-8.1687,-8.1689,-8.1785,-8.1782,-8.1854,-8.1833,-8.1928,-8.1947,-8.1915,-8.1989,-8.1949,-8.2026,-8.2003,-8.2161,-8.2128,-8.2154,-8.2146,-8.2266,-8.2256,-8.2663,-8.2714,-8.2336,-8.2339,-8.2343,0,-8.1778,-8.1866,-8.1873,-8.1917,-8.1929,-8.2001,-8.2039,-8.1983,-8.2027,-8.2057,-8.2125,-8.2192,-8.2242,-8.2365,-8.2349,-8.2407,-8.2375,-8.2514,-8.2383,-8.2398,-8.2377,-8.2373,-8.2381,-8.254,-8.2544,-8.2548,-8.2551,0,-8.2105,-8.2084,-8.2142,-8.2195,-8.2243,-8.2282,-8.2314,-8.2355,-8.23,-8.2353,-8.2427,-8.2467,-8.2544,-8.2612,-8.2662,-8.2668,-8.2602,-8.2592,-8.2623,-8.2642,-8.2654,-8.2649,-8.2226,-8.2583,-8.258,-8.2578,-8.2576,-8.2575,-8.2348,-8.2423,-8.2439,-8.2507,-8.2526,-8.2558,-8.2625,-8.2613,-8.2674,-8.2733,-8.2696,-8.2784,-8.2803,-8.2863,-8.2878,-8.2946,-8.289,-8.2934,-8.2946,-8.2958,-8.2974,-8.2643,-8.2955,-8.2954,-8.2953,-8.2952,-8.2951,0,-8.2672,-8.2678,-8.2741,-8.2788,-8.2842,-8.2774,-8.2806,-8.2856,-8.2934,-8.2957,-8.3009,-8.3095,-8.316,-8.3149,-8.3208,-8.3265,-8.3236,-8.3283,-8.3278,-8.328,-8.302,-8.2988,-8.3305,-8.3305,-8.3305,-8.3305,-8.3305,-8.3305,-8.2846,-8.2969,-8.2949,-8.308,-8.3084,-8.317,-8.3194,-8.3223,-8.3241,-8.3341,-8.3395,-8.3387,-8.3397,-8.3456,-8.3513,-8.3508,-8.3534,-8.3592,-8.3577,-8.3334,-8.3299,-8.3265,-8.3235,-8.3598,-8.3599,-8.3831,-8.3833,-8.3835]},{"header":{"parameterUnit":"m.s-1","parameterCategory":1,"la1":30.2991,"la2":30.254,"lo1":-89.0895,"lo2":-89.0444,"dy":0.0017,"dx":0.0017,"nx":28,"ny":28,"refTime":"2023-10-10T21:00:00:Z","depth":0,"parameterNumber":3,"parameterNumberName":"V-component_of_WINDS"},"data":[0,0,0,0,0,0,0,0,0,0,0,0,0,0,0,0,0,0,0,0,0,0,0,0,0,0,0,0,0,0,0,0,0,0,0,0,0,0,0,0,0,0,0,0,0,0,0,0,0,0,0,0,0,0,0,0,0,0,-9.1144,-9.1144,0,-9.1172,-9.1172,-9.1173,-9.1008,-9.1004,-9.0999,-9.0995,-9.1021,-9.1026,-9.1031,0,0,0,0,0,0,0,0,0,0,0,0,0,-9.0944,-9.0949,-9.1144,-9.1144,-9.1145,-9.1172,-9.1172,-9.1173,-9.1009,-9.1003,-9.0998,-9.0992,-9.1019,-9.1025,-9.1031,0,0,0,0,0,0,0,0,0,0,0,0,0,-9.1007,-9.095,-9.1144,-9.1066,-9.106,-9.1172,-9.1172,-9.1173,-9.101,-9.1003,-9.0996,-9.099,-9.1017,-9.1025,-9.1032,-9.122,0,0,-9.1055,-9.1059,0,0,0,0,0,0,0,0,-9.1004,-9.1015,-9.1077,-9.1072,-9.1065,-9.1079,-9.1111,-9.1188,-9.1012,-9.1029,-9.0994,-9.0986,-9.1046,-9.1051,-9.1071,-9.1221,-9.1222,-9.1056,-9.1061,-9.1064,-9.1066,0,0,0,0,0,0,0,-9.1,-9.1013,-9.1155,-9.1078,-9.1071,-9.1029,-9.103,-9.1125,-9.1076,-9.1027,-9.1015,-9.1021,-9.1041,-9.1065,-9.1071,-9.1222,-9.1056,-9.1063,-9.1067,-9.107,-9.1524,-9.1531,0,0,0,0,0,0,-9.1006,-9.101,-9.1154,-9.1156,-9.1016,-9.1038,-9.1039,-9.1082,-9.1075,-9.1067,-9.1027,-9.1013,-9.1055,-9.1062,-9.1071,-9.1288,-9.1064,-9.1071,-9.1075,-9.1517,-9.1526,-9.1534,0,0,0,0,0,0,-9.1003,-9.1021,-9.1153,-9.108,-9.1093,-9.1049,-9.1098,-9.1086,-9.1109,-9.1075,-9.1065,-9.106,-9.105,-9.106,-9.1183,-9.1287,-9.1074,-9.1081,-9.1508,-9.1519,-9.153,-9.1725,0,0,0,0,0,0,-9.0998,-9.102,-9.1092,-9.1083,-9.1098,-9.1267,-9.1104,-9.1092,-9.1123,-9.1105,-9.1103,-9.1096,-9.1045,-9.1173,-9.1191,-9.1293,-9.1087,-9.1498,-9.1513,-9.1526,-9.1709,-9.1741,-9.1769,0,0,0,0,0,-9.0991,-9.1146,-9.1097,-9.1115,-9.1187,-9.1273,-9.1281,-9.122,-9.1132,-9.1203,-9.1181,-9.1096,-9.1273,-9.1187,-9.1206,-9.1312,-9.1491,-9.1509,-9.1525,-9.1696,-9.1735,-9.1769,0,0,0,0,0,0,-9.1168,-9.1143,-9.1088,-9.1245,-9.1263,-9.1245,-9.1332,-9.1264,-9.1306,-9.1288,-9.1209,-9.121,-9.1346,-9.1341,-9.1246,-9.1492,-9.1367,-9.1388,-9.149,-9.1527,-9.1557,-9.1554,-9.1094,0,0,0,0,0,-9.1226,-9.1299,-9.1272,-9.1413,-9.1425,-9.1378,-9.1413,-9.1364,-9.1378,-9.1385,-9.1371,-9.1387,-9.1446,-9.1486,-9.1539,-9.1708,-9.1704,-9.179,-9.182,-9.1845,-9.1864,-9.1951,-9.1988,-9.1589,-9.1589,-9.1589,0,0,-9.1345,-9.134,-9.1391,-9.1449,-9.1456,-9.1532,-9.1385,-9.1472,-9.1526,-9.1397,-9.1512,-9.1503,-9.1516,-9.1663,-9.1726,-9.1663,-9.1974,-9.1867,-9.1887,-9.1892,-9.1972,-9.201,-9.2044,-9.1601,-9.1599,-9.1597,0,0,-9.16,-9.1605,-9.1722,-9.1732,-9.1746,-9.1713,-9.1742,-9.1734,-9.1723,-9.1838,-9.1742,-9.1806,-9.1909,-9.1922,-9.1942,-9.2201,-9.2124,-9.222,-9.2377,-9.2463,-9.2494,-9.2521,-9.2612,-9.2646,-9.224,-9.224,-9.224,0,-9.1746,-9.1857,-9.179,-9.1883,-9.191,-9.1798,-9.1914,-9.1927,-9.1957,-9.1978,-9.1907,-9.2033,-9.2034,-9.2181,-9.2244,-9.2265,-9.2293,-9.2219,-9.2495,-9.2522,-9.2546,-9.2632,-9.2666,-9.2251,-9.225,-9.2249,-9.2248,0,-9.2035,-9.2114,-9.2206,-9.2238,-9.2275,-9.238,-9.2327,-9.2373,-9.2321,-9.2296,-9.2413,-9.241,-9.2459,-9.249,-9.2441,-9.263,-9.259,-9.2509,-9.2381,-9.2597,-9.2676,-9.2708,-9.2268,-9.2264,-9.226,-9.2258,0,0,-9.2402,-9.2395,-9.243,-9.2442,-9.2449,-9.2507,-9.2606,-9.2654,-9.2694,-9.2719,-9.2798,-9.2888,-9.2812,-9.2835,-9.2785,-9.2861,-9.3064,-9.2769,-9.2768,-9.2823,-9.327,-9.3331,-9.337,-9.3014,-9.302,-9.3025,-9.3269,0,-9.265,-9.2818,-9.276,-9.2931,-9.3002,-9.2896,-9.2981,-9.2993,-9.2973,-9.3028,-9.3004,-9.3068,-9.2964,-9.2977,-9.3048,-9.3025,-9.3153,-9.3006,-9.3085,-9.3089,-9.3084,-9.3411,-9.3475,-9.3706,-9.3299,-9.3304,-9.3308,0,-9.2962,-9.2999,-9.3177,-9.317,-9.3197,-9.3275,-9.3313,-9.3369,-9.338,-9.3359,-9.3385,-9.3319,-9.3413,-9.3287,-9.3415,-9.3317,-9.3346,-9.334,-9.3347,-9.335,-9.3211,-9.3422,-9.3778,-9.3812,-9.3356,-9.3353,-9.3349,0,-9.3209,-9.3304,-9.3422,-9.3436,-9.3431,-9.3488,-9.3488,-9.3492,-9.3525,-9.3558,-9.3578,-9.3623,-9.3647,-9.3682,-9.3629,-9.3543,-9.3765,-9.3634,-9.3748,-9.375,-9.3798,-9.3796,-9.4162,-9.3821,-9.382,-9.382,-9.3819,0,-9.3491,-9.3604,-9.3532,-9.3605,-9.3728,-9.3659,-9.3782,-9.377,-9.3775,-9.3843,-9.3754,-9.3819,-9.3746,-9.3804,-9.3763,-9.3874,-9.3886,-9.3871,-9.3858,-9.3878,-9.3879,-9.3894,-9.3876,-9.3829,-9.3827,-9.3825,-9.3823,0,-9.3788,-9.3745,-9.3866,-9.3851,-9.385,-9.3941,-9.3927,-9.3993,-9.3966,-9.4052,-9.4068,-9.4025,-9.4089,-9.404,-9.4102,-9.4074,-9.4221,-9.4187,-9.4217,-9.4207,-9.4323,-9.4312,-9.4711,-9.4758,-9.4388,-9.4392,-9.4395,0,-9.3969,-9.4053,-9.4048,-9.4087,-9.4093,-9.4157,-9.4189,-9.4125,-9.4162,-9.4181,-9.4244,-9.43,-9.4341,-9.4447,-9.442,-9.4467,-9.4432,-9.4568,-9.4438,-9.4455,-9.4432,-9.4427,-9.4434,-9.4594,-9.4599,-9.4602,-9.4605,0,-9.4296,-9.427,-9.4321,-9.4364,-9.4405,-9.4436,-9.446,-9.4497,-9.4431,-9.4477,-9.4541,-9.4573,-9.4636,-9.4692,-9.4729,-9.4728,-9.4656,-9.4647,-9.4675,-9.4695,-9.4708,-9.4701,-9.4287,-9.4637,-9.4634,-9.4632,-9.463,-9.4629,-9.4539,-9.4608,-9.4614,-9.4673,-9.4684,-9.4708,-9.4769,-9.4749,-9.4801,-9.4848,-9.4806,-9.4883,-9.489,-9.4933,-9.4941,-9.4998,-9.4942,-9.4984,-9.4994,-9.5005,-9.502,-9.4701,-9.5005,-9.5004,-9.5003,-9.5003,-9.5002,0,-9.4859,-9.4858,-9.4913,-9.4948,-9.4994,-9.4923,-9.4945,-9.4988,-9.5056,-9.507,-9.5112,-9.5184,-9.5238,-9.5216,-9.5263,-9.5313,-9.5281,-9.5327,-9.5322,-9.5323,-9.5069,-9.5039,-9.5353,-9.5352,-9.5352,-9.5352,-9.5352,-9.5352,-9.5031,-9.5143,-9.5119,-9.5235,-9.5232,-9.5307,-9.5325,-9.5346,-9.5356,-9.5441,-9.5485,-9.5471,-9.547,-9.5515,-9.5561,-9.5553,-9.5573,-9.5632,-9.5612,-9.5375,-9.5341,-9.5308,-9.5279,-9.5637,-9.5638,-9.586,-9.5862,-9.5863]}]]